HORIZONS 3E

Last updated on Dec. 5, 2020, 6:14 a.m. UTC

1 43633U 18074B   20339.78480046 -.00000015  00000-0  00000-0 0  9990
2 43633   0.0097  99.8344 0000100 137.4625 288.2972  1.00269536  8089
UTC
Height (km)
Latitude
Longitude
Inclination
Orbital Period
UTC large
Height (km)
Speed (km/s)
/
Latitude / Longitude
Inclination (degrees)
Orbital Period (minutes)
Azimuth
Elevation
Range (km)
Doppler Factor
iOS Compass Heading
iOS Angle

Next 30 passes for location: Hong Kong

Rise time Rise Azimuth (degrees) Set time Set Azimuth (degrees) Duration Max altitude (degrees)

No matching passes for this satellites